BADR-5

Last updated on Sept. 20, 2020, 5:45 a.m. UTC

1 36592U 10025A   20263.73943059  .00000129  00000-0  00000-0 0  9998
2 36592   0.0332 124.0604 0005362  42.2507 124.9570  1.00271607 32195
UTC
Height (km)
Latitude
Longitude
Inclination
Orbital Period
UTC large
Height (km)
Speed (km/s)
/
Latitude / Longitude
Inclination (degrees)
Orbital Period (minutes)
Azimuth
Elevation
Range (km)
Doppler Factor
iOS Compass Heading
iOS Angle

Next 30 passes for location: Hong Kong

Rise time Rise Azimuth (degrees) Set time Set Azimuth (degrees) Duration Max altitude (degrees)

No matching passes for this satellites